Masthead Graphic

Historical weather data from Belfast International Airport

The table below shows the weather reports for the last 24 hours taken from the METAR weather bulletins issued by Belfast International Airport. Readings should be at 30 min intervals however they are not always available

Date Time Pressure mb Temp. Wind Kts Wind Dir. Gusts Kts Conditions
06/05/2021 18:20:00 1010 7 16 320 scattered clouds
06/05/2021 17:50:00 1010 8 14 320 scattered clouds
06/05/2021 17:20:00 1010 9 16 330 scattered clouds
06/05/2021 16:20:00 1009 10 14 350 scattered clouds
06/05/2021 15:50:00 1009 10 16 330 scattered clouds
06/05/2021 15:20:00 1009 10 17 330 scattered clouds
06/05/2021 14:50:00 1009 10 15 340 scattered clouds
06/05/2021 14:20:00 1008 11 17 330 scattered clouds
06/05/2021 13:50:00 1008 10 18 340 scattered clouds
06/05/2021 13:20:00 1008 11 18 320 scattered clouds
06/05/2021 12:50:00 1008 10 18 340 scattered clouds
06/05/2021 12:20:00 1008 10 18 330 scattered clouds
06/05/2021 11:50:00 1008 9 15 330 scattered clouds
06/05/2021 11:20:00 1008 9 15 340 scattered clouds
06/05/2021 10:50:00 1008 9 15 340 scattered clouds
06/05/2021 10:20:00 1008 9 17 340 partly cloudy
06/05/2021 09:50:00 1007 8 13 340 24 partly cloudy
06/05/2021 09:20:00 1007 7 12 330 mostly cloudy
light rain
06/05/2021 08:50:00 1007 6 9 330 mostly cloudy
06/05/2021 08:20:00 1007 6 8 300 partly cloudy
06/05/2021 07:50:00 1007 5 8 290 clear skies
06/05/2021 07:20:00 1007 4 8 290 clear skies
06/05/2021 06:50:00 1007 2 5 270 clear skies
06/05/2021 05:20:00 1007 -2 1 Variable partly cloudy
First Previous